#timestamp,LO_Frequency,Hit,StdDev 
1616454015.5,286047001.0,N
1616454035.3,286046998.3,N
1616454055.1,286046999.6,N
1616454075.9,286047000.5,N
1616454095.7,286047000.7,N
1616454115.6,286047001.9,N
1616454135.4,286046996.5,N
1616454155.2,286046999.4,N
1616454175.1,286046994.9,N
1616454176.0,286046994.9,N
1616454195.8,286046996.5,N
1616454215.6,286046998.5,N
1616454235.5,286046999.9,N
1616454255.3,286046998.6,N
1616454275.1,286047002.4,N
1616454295.9,286047002.1,N
1616454315.7,286046996.8,N
1616454335.6,286046998.8,N
1616454355.4,286046996.8,N
1616454375.2,286046996.5,N
1616454395.1,286046995.1,N
1616454396.0,286046995.1,N
1616454415.8,286046995.3,N
1616454435.6,286046997.9,N
1616454455.5,286046997.6,N
1616454475.3,286046997.5,N
1616454495.2,286046997.4,N
1616454515.9,286046998.5,N
1616454535.7,286047000.1,N
1616454555.6,286046998.7,N
1616454575.4,286047001.4,N
1616454595.2,286047006.3,N
1616454615.1,286047001.9,N
1616454616.0,286047001.9,N
1616454635.8,286047001.6,N
1616454655.7,286047003.4,N
1616454675.5,286047004.2,N
1616454695.3,286047004.1,N
1616454715.2,286047004.0,N
1616454735.0,286047003.1,N
1616454735.9,286047003.1,N
1616454755.7,286047003.9,N
1616454775.6,286047004.6,N
1616454795.4,286047002.7,N
1616454815.3,286046999.7,N
1616454835.1,286046999.7,N
1616454836.0,286046999.7,N
1616454855.8,286047002.4,N
1616454875.7,286046998.7,N
1616454895.5,286046998.5,N
1616454915.3,286046999.2,N
1616454935.2,286046998.3,N
1616454955.0,286046998.1,N
1616454955.9,286046998.1,N
1616454975.8,286047000.2,N
1616454995.6,286046999.9,N
1616455015.4,286047002.3,N
1616455035.3,286047000.5,N
1616455055.1,286047000.7,N
1616455075.9,286047001.1,N
1616455095.7,286047001.1,N
1616455115.5,286047000.8,N
1616455135.4,286047000.4,N
1616455155.2,286046999.6,N
1616455175.0,286046999.1,N
1616455175.9,286046999.1,N
1616455195.8,286047000.0,N
1616455215.6,286047001.5,N
1616455235.5,286047005.4,N
1616455255.3,286047002.1,N
1616455275.1,286047003.5,N
1616455295.9,286047000.2,N
1616455315.7,286046998.1,N
1616455335.5,286047000.3,N
1616455355.4,286046998.8,N
1616455375.2,286046999.5,N
1616455395.1,286046996.5,N
1616455396.0,286046996.5,N
1616455415.8,286046998.3,N
1616455435.6,286047000.8,N
1616455455.5,286046999.7,N
1616455475.3,286047004.3,N
1616455495.1,286047000.0,N
1616455515.9,286047002.8,N
1616455535.7,286047000.1,N
1616455555.6,286047003.4,N
1616455575.4,286047001.3,N
1616455595.2,286047006.0,N
1616455615.1,286047005.1,N
1616455616.0,286047005.1,N
1616455635.8,286047006.7,N
1616455655.6,286047007.6,N
1616455675.5,286047007.6,N
1616455695.3,286047008.9,N
1616455715.2,286047009.2,N
1616455735.9,286047008.4,N
1616455755.7,286047005.6,N
1616455775.6,286047005.6,N
1616455795.4,286047003.3,N
1616455815.2,286047005.2,N
1616455835.1,286047008.4,N
1616455836.0,286047008.4,N
1616455855.8,286047008.9,N
1616455875.7,286047008.3,N
1616455895.5,286047008.4,N
1616455915.3,286047007.8,N
1616455935.2,286047010.1,N
1616455955.9,286047009.6,N
1616455975.7,286047012.3,Y
1616455995.6,286047003.4,P
1616456015.4,286047005.4,P
1616456035.3,286047007.2,P
1616456055.1,286047004.3,Y
1616456056.0,286047004.3,P
1616456075.8,286046995.9,P
1616456095.7,286046993.5,N
1616456115.5,286046996.7,N
1616456135.3,286046999.5,N
1616456155.2,286046999.8,N
1616456175.0,286047002.8,N
1616456175.9,286047002.8,N
1616456195.8,286046999.1,N
1616456215.6,286046995.5,N
1616456235.4,286046997.4,N
1616456255.3,286046999.4,N
1616456275.1,286046995.7,N
1616456295.8,286046994.0,N
1616456315.7,286046992.4,N
1616456335.5,286046994.3,N
1616456355.4,286046996.0,N
1616456375.2,286046994.4,N
1616456395.0,286046991.9,N
1616456395.9,286046991.9,N
1616456415.8,286046988.5,N
1616456435.6,286046992.5,N
1616456455.5,286046991.6,N
1616456475.3,286046989.7,N
1616456495.1,286046988.8,N
1616456515.9,286046990.5,N
1616456535.7,286046993.0,N
1616456555.5,286046992.9,N
1616456575.4,286046993.1,N
1616456595.2,286046994.2,N
1616456615.1,286046997.3,N
1616456616.0,286046997.3,N
1616456635.8,286046995.6,N
1616456655.6,286046995.8,N
1616456675.5,286046995.6,N
1616456695.3,286046997.3,N
1616456715.2,286046992.6,N
1616456735.9,286046990.6,N
1616456755.7,286046990.6,Y
1616456775.6,286046997.3,P
1616456795.4,286046994.9,P
1616456815.2,286046999.0,N
1616456835.1,286046996.5,N
1616456836.0,286046996.5,N
1616456855.8,286046995.8,N
1616456875.7,286046995.7,N
1616456895.5,286046997.8,N
1616456915.3,286046997.3,N
1616456935.2,286046995.0,Y
1616456955.0,286047001.0,P
1616456955.9,286047001.0,N
1616456975.8,286047000.4,N
1616456995.6,286047001.4,N
1616457015.4,286047004.4,N
1616457035.3,286047002.7,N
1616457055.1,286046998.3,N
1616457075.8,286047001.1,N
1616457095.7,286046997.3,N
1616457115.5,286046998.8,N
1616457135.4,286046995.6,N
1616457155.2,286046993.4,N
1616457175.0,286046994.0,N
1616457175.9,286046994.0,N
1616457195.8,286046995.4,N
1616457215.6,286046997.1,N
1616457235.4,286046997.8,N
1616457255.3,286046996.7,N
1616457275.1,286046999.6,N
1616457295.9,286046995.0,N
1616457315.7,286046995.1,N
1616457335.5,286046996.2,N
1616457355.4,286046995.4,N
1616457375.2,286046996.4,N
1616457395.0,286046997.3,N
1616457395.9,286046997.3,N
1616457415.8,286046999.4,N
1616457435.6,286046995.4,N
1616457455.4,286046994.0,N
1616457475.3,286046992.9,N
1616457495.1,286046992.6,N
1616457515.9,286046994.1,N
1616457535.7,286046995.9,N
1616457555.5,286046996.0,N
1616457575.4,286046997.5,N
1616457595.2,286046995.5,N
